Погода в Весёлом

Россия / Краснодарский край     43°25′02″N   40°00′26″E
темп.,
°C
ветер,
м/с
пор.,
м/с
влажн.,
%
обл.,
%
осадки,
мм/ч
давл.,
гПа
погр.,
м
24 января, вс
вс2400:00+4всв225325 0.0 102136
03:00+4всв32528 0.0 102037
06:00+4всв32520 0.0 101839
09:00+5всв225329 0.0 101746
12:00+10юв1255100 0.0 1017177
15:00+10юв1166100 0.0 1015103
18:00+7в2264100 0.0 101750
21:00+6всв2251100 0.0 101638
25 января, пн
пн2500:00+6всв3246100 0.0 101742
03:00+6в224884 0.0 101752
06:00+5всв22520 0.0 101854
09:00+6всв22510 0.0 101848
12:00+10юв12550 0.0 1016215
15:00+11в126318 0.0 1014105
18:00+9в2259100 0.0 101335
21:00+8всв2255100 0.0 101330
26 января, вт
вт2600:00+7в2254100 0.0 101429
03:00+6в235694 0.0 101552
06:00+7в3459100 0.4 101698
09:00+8всв5560100 0.4 1017128
12:00+12вюв2364100 0.0 1016190
15:00+12в3464100 0.0 1014136
18:00+9всв336677 0.0 101455
21:00+9всв336586 0.0 101340
27 января, ср
ср2700:00+9всв3363100 0.0 101240
03:00+8всв2262100 0.0 101027
06:00+8в2264100 0.0 100825
09:00+9в2266100 0.0 100756
12:00+13юв375192 0.0 1005388
15:00+13юв355293 0.0 1003197
18:00+10в3558100 0.0 1003129
21:00+10вюв3549100 0.0 100482
28 января, чт
чт2800:00+9всв4562100 0.0 1004104
03:00+9всв3362100 0.0 100465
06:00+9зюз2476100 0.1 1003115
09:00+9всв4576100 1.3 1004157
12:00+8ююз3784100 0.9 1006821
15:00+6зюз3493100 7.8 1008424
18:00+4ссз2292100 4.1 1011269
21:00+4ссз1287100 4.4 1013145